Esther, Alberta

10:22 AM MST on December 15, 2017 (GMT -0700)
Esther

Weather History for CWGY - September, 2013

Change the Weather History Date:

Wednesday, September 25, 2013

  Actual Average Record
Temperature  
Mean Temperature 48 °F -  
Max Temperature 61 °F - - ()
Min Temperature 34 °F - - ()
Degree Days  
Heating Degree Days 16    
Moisture  
Dew Point 31 °F    
Average Humidity 51    
Maximum Humidity 79    
Minimum Humidity 17    
Precipitation  
Precipitation 0.02 in - - ()
Sea Level Pressure  
Sea Level Pressure 29.88 in    
Wind  
Wind Speed 9 mph ()    
Max Wind Speed 20 mph    
Max Gust Speed 28 mph    
T = Trace of Precipitation, MM = Missing Value Source: Averaged Metar Reports

Daily Weather History Graph

Daily Weather History Graph

Search for Another Location

Airport or City:

Trip Planner

Search our weather history database for the weather conditions in past years. The results will help you decide how hot, cold, wet, or windy it might be!

Date:

Astronomy

Sep. 25, 2013 Rise Set
Actual Time 7:12 AM MDT 7:11 PM MDT
Civil Twilight 6:38 AM MDT 7:44 PM MDT
Nautical Twilight 5:59 AM MDT 8:23 PM MDT
Astronomical Twilight 5:18 AM MDT 9:04 PM MDT
Moon 10:43 PM MDT (9/25) 1:58 PM MDT (9/25)
Length of Visible Light 13h 05m
Length of Day
11h 58m
Waning Gibbous, 63% of the Moon is Illuminated
Sep 25
Waning Gibbous
Sep 26
Last Quarter
Oct 4
New
Oct 11
First Quarter
Oct 18
Full

Hourly Weather History & Observations

Time (MDT) Temp. Windchill Dew Point Humidity Pressure Visibility Wind Dir Wind Speed Gust Speed Precip Events Conditions
12:00 AM 50 °F - 37 °F 50% 29.81 in - North 9.2 mph - -  
12:00 AM 50.2 °F - 37.0 °F 61% 29.81 in - North 9.2 mph - N/A   Unknown
1:00 AM 49.6 °F - 36.5 °F 61% 29.81 in - North 8.1 mph - N/A   Unknown
2:00 AM 50.4 °F - 35.8 °F 57% 29.81 in - North 9.2 mph - N/A   Unknown
3:00 AM 48.7 °F - 36.7 °F 63% 29.81 in - North 6.9 mph - N/A   Unknown
4:00 AM 46.0 °F 43.1 °F 39.6 °F 78% 29.84 in - East 5.8 mph - N/A   Unknown
5:00 AM 46.0 °F 43.1 °F 38.8 °F 76% 29.83 in - NNW 5.8 mph - 0.02 in   Unknown
6:00 AM 45 °F - 39 °F 72% 29.84 in - WNW 8.1 mph - -  
6:00 AM 45.3 °F 41.1 °F 39.0 °F 79% 29.84 in - WNW 8.1 mph - N/A   Unknown
7:00 AM 45.7 °F 43.4 °F 36.7 °F 71% 29.85 in - North 4.6 mph - N/A   Unknown
8:00 AM 45.3 °F 44.0 °F 37.0 °F 73% 29.86 in - NW 3.5 mph - N/A   Unknown
9:00 AM 46.6 °F - 37.9 °F 72% 29.89 in - WNW 4.6 mph - N/A   Unknown
10:00 AM 51.3 °F - 36.3 °F 57% 29.88 in - North 8.1 mph - N/A   Unknown
11:00 AM 52.9 °F - 33.8 °F 48% 29.87 in - North 15.0 mph - N/A   Unknown
12:00 PM 57 °F - 30 °F 24% 29.86 in - North 19.6 mph - -  
12:00 PM 57.2 °F - 30.4 °F 36% 29.86 in - North 19.6 mph 26.5 mph N/A   Unknown
1:00 PM 60.4 °F - 30.0 °F 32% 29.87 in - North 18.4 mph 25.3 mph N/A   Unknown
2:00 PM 59.4 °F - 27.5 °F 30% 29.86 in - North 18.4 mph 26.5 mph N/A   Unknown
3:00 PM 60.4 °F - 25.5 °F 26% 29.87 in - North 19.6 mph 27.6 mph N/A   Unknown
4:00 PM 57.4 °F - 21.9 °F 25% 29.90 in - North 17.3 mph 25.3 mph N/A   Unknown
5:00 PM 58.1 °F - 21.9 °F 25% 29.91 in - North 16.1 mph - N/A   Unknown
6:00 PM 54 °F - 22 °F 17% 29.92 in - North 15.0 mph - -  
6:00 PM 54.1 °F - 22.3 °F 29% 29.92 in - North 15.0 mph - N/A   Unknown
7:00 PM 50.4 °F - 25.3 °F 38% 29.95 in - North 10.4 mph - N/A   Unknown
8:00 PM 43.2 °F 40.5 °F 25.5 °F 50% 29.97 in - NNW 4.6 mph - N/A   Unknown
9:00 PM 39.2 °F 37.0 °F 25.7 °F 58% 29.98 in - NW 3.5 mph - N/A   Unknown
10:00 PM 36.5 °F 33.9 °F 24.4 °F 62% 29.99 in - WNW 3.5 mph - N/A   Unknown
11:00 PM 34.0 °F 28.0 °F 25.7 °F 72% 29.99 in - West 6.9 mph - N/A   Unknown